Time,TemperatureF,DewpointF,PressureIn,WindDirection,WindDirectionDegrees,WindSpeedMPH,WindSpeedGustMPH,Humidity,HourlyPrecipIn,Conditions,Clouds,dailyrainin,SoftwareType,DateUTC
2013-01-20 00:03:00,43.7,34.3,30.09,North,0,2.2,2.7,69,0.00,,,0.00,WUHU216HW,2013-01-20 06:03:00,
2013-01-20 00:08:00,43.6,34.1,30.10,North,0,1.8,2.9,69,0.00,,,0.00,WUHU216HW,2013-01-20 06:08:00,
2013-01-20 00:13:00,43.4,33.9,30.09,North,0,1.1,2.9,69,0.00,,,0.00,WUHU216HW,2013-01-20 06:13:00,
2013-01-20 00:18:00,43.0,33.6,30.09,North,0,1.8,2.0,69,0.00,,,0.00,WUHU216HW,2013-01-20 06:18:00,
2013-01-20 00:23:00,42.8,33.5,30.10,North,0,0.9,1.8,69,0.00,,,0.00,WUHU216HW,2013-01-20 06:23:00,
2013-01-20 00:28:00,42.7,33.3,30.10,North,0,0.7,1.3,69,0.00,,,0.00,WUHU216HW,2013-01-20 06:28:00,
2013-01-20 00:33:00,42.5,33.5,30.10,North,0,0.7,1.1,70,0.00,,,0.00,WUHU216HW,2013-01-20 06:33:00,
2013-01-20 00:38:00,42.1,33.1,30.10,North,0,0.6,1.1,70,0.00,,,0.00,WUHU216HW,2013-01-20 06:38:00,
2013-01-20 00:43:00,41.8,32.4,30.10,North,0,0.4,0.9,69,0.00,,,0.00,WUHU216HW,2013-01-20 06:43:00,
2013-01-20 00:48:00,41.4,32.1,30.10,North,0,0.4,0.4,69,0.00,,,0.00,WUHU216HW,2013-01-20 06:48:00,
2013-01-20 00:53:00,40.9,31.5,30.10,North,0,0.7,0.7,69,0.00,,,0.00,WUHU216HW,2013-01-20 06:53:00,
2013-01-20 00:58:00,40.7,31.7,30.10,North,0,0.4,0.9,70,0.00,,,0.00,WUHU216HW,2013-01-20 06:58:00,
2013-01-20 01:03:00,40.3,31.3,30.11,North,0,0.6,0.9,70,0.00,,,0.00,WUHU216HW,2013-01-20 07:03:00,
2013-01-20 01:08:00,40.3,31.7,30.11,North,0,0.4,0.7,71,0.00,,,0.00,WUHU216HW,2013-01-20 07:08:00,
2013-01-20 01:13:00,40.1,31.5,30.11,North,0,0.7,0.7,71,0.00,,,0.00,WUHU216HW,2013-01-20 07:13:00,
2013-01-20 01:18:00,40.0,31.3,30.11,North,0,0.4,0.7,71,0.00,,,0.00,WUHU216HW,2013-01-20 07:18:00,
2013-01-20 01:23:00,40.0,31.3,30.11,North,0,0.4,0.7,71,0.00,,,0.00,WUHU216HW,2013-01-20 07:23:00,
2013-01-20 01:28:00,39.8,31.2,30.11,North,0,0.6,0.9,71,0.00,,,0.00,WUHU216HW,2013-01-20 07:28:00,
2013-01-20 01:33:00,39.6,31.0,30.11,North,0,0.4,0.9,71,0.00,,,0.00,WUHU216HW,2013-01-20 07:33:00,
2013-01-20 01:38:00,39.4,30.8,30.11,North,0,0.3,0.4,71,0.00,,,0.00,WUHU216HW,2013-01-20 07:38:00,
2013-01-20 01:43:00,39.1,30.4,30.11,North,0,0.2,0.4,71,0.00,,,0.00,WUHU216HW,2013-01-20 07:43:00,
2013-01-20 01:48:00,38.7,30.1,30.11,North,0,0.2,0.4,71,0.00,,,0.00,WUHU216HW,2013-01-20 07:48:00,
2013-01-20 01:53:00,38.3,29.8,30.11,North,0,0.0,0.4,71,0.00,,,0.00,WUHU216HW,2013-01-20 07:53:00,
2013-01-20 01:58:00,38.2,30.0,30.12,North,0,0.2,0.4,72,0.00,,,0.00,WUHU216HW,2013-01-20 07:58:00,
2013-01-20 02:03:00,37.8,29.3,30.12,North,0,0.0,0.4,71,0.00,,,0.00,WUHU216HW,2013-01-20 08:03:00,
2013-01-20 02:08:00,37.6,29.1,30.12,North,0,0.2,0.2,71,0.00,,,0.00,WUHU216HW,2013-01-20 08:08:00,
2013-01-20 02:13:00,37.3,28.8,30.12,North,0,0.4,0.4,71,0.00,,,0.00,WUHU216HW,2013-01-20 08:13:00,
2013-01-20 02:18:00,37.3,29.1,30.12,North,0,0.4,0.4,72,0.00,,,0.00,WUHU216HW,2013-01-20 08:18:00,
2013-01-20 02:23:00,37.4,29.6,30.12,North,0,0.4,0.9,73,0.00,,,0.00,WUHU216HW,2013-01-20 08:23:00,
2013-01-20 02:28:00,37.4,29.3,30.12,North,0,0.4,0.9,72,0.00,,,0.00,WUHU216HW,2013-01-20 08:28:00,
2013-01-20 02:33:00,37.4,29.3,30.12,North,0,0.4,0.4,72,0.00,,,0.00,WUHU216HW,2013-01-20 08:33:00,
2013-01-20 02:38:00,37.1,28.9,30.12,North,0,0.0,0.4,72,0.00,,,0.00,WUHU216HW,2013-01-20 08:38:00,
2013-01-20 02:43:00,36.7,28.5,30.13,North,0,0.0,0.0,72,0.00,,,0.00,WUHU216HW,2013-01-20 08:43:00,
2013-01-20 02:48:00,36.5,28.4,30.12,North,0,0.4,0.4,72,0.00,,,0.00,WUHU216HW,2013-01-20 08:48:00,
2013-01-20 02:53:00,36.5,28.7,30.12,North,0,0.0,0.4,73,0.00,,,0.00,WUHU216HW,2013-01-20 08:53:00,
2013-01-20 02:58:00,36.5,28.4,30.13,North,0,0.0,0.4,72,0.00,,,0.00,WUHU216HW,2013-01-20 08:58:00,
2013-01-20 03:03:00,36.4,28.2,30.13,North,0,0.0,0.0,72,0.00,,,0.00,WUHU216HW,2013-01-20 09:03:00,
2013-01-20 03:08:00,36.2,28.4,30.13,NNW,338,0.4,0.4,73,0.00,,,0.00,WUHU216HW,2013-01-20 09:08:00,
2013-01-20 03:13:00,36.4,28.5,30.13,NNW,338,0.4,0.4,73,0.00,,,0.00,WUHU216HW,2013-01-20 09:13:00,
2013-01-20 03:18:00,36.7,28.9,30.13,NNW,338,0.6,0.7,73,0.00,,,0.00,WUHU216HW,2013-01-20 09:18:00,
2013-01-20 03:23:00,36.9,28.7,30.13,North,0,1.8,1.8,72,0.00,,,0.00,WUHU216HW,2013-01-20 09:23:00,
2013-01-20 03:28:00,37.3,28.8,30.14,North,0,1.3,2.5,71,0.00,,,0.00,WUHU216HW,2013-01-20 09:28:00,
2013-01-20 03:33:00,37.4,29.0,30.13,North,0,0.4,2.5,71,0.00,,,0.00,WUHU216HW,2013-01-20 09:33:00,
2013-01-20 03:38:00,37.3,28.8,30.13,North,0,0.4,1.6,71,0.00,,,0.00,WUHU216HW,2013-01-20 09:38:00,
2013-01-20 03:43:00,37.1,28.3,30.13,North,0,1.3,1.3,70,0.00,,,0.00,WUHU216HW,2013-01-20 09:43:00,
2013-01-20 03:48:00,37.4,29.0,30.13,North,0,1.8,1.8,71,0.00,,,0.00,WUHU216HW,2013-01-20 09:48:00,
2013-01-20 03:53:00,37.8,29.0,30.13,North,0,1.5,1.8,70,0.00,,,0.00,WUHU216HW,2013-01-20 09:53:00,
2013-01-20 03:58:00,37.8,28.5,30.13,North,0,1.1,1.6,69,0.00,,,0.00,WUHU216HW,2013-01-20 09:58:00,
2013-01-20 04:03:00,37.6,28.8,30.13,North,0,1.8,1.8,70,0.00,,,0.00,WUHU216HW,2013-01-20 10:03:00,
2013-01-20 04:08:00,37.6,28.8,30.13,North,0,0.4,1.8,70,0.00,,,0.00,WUHU216HW,2013-01-20 10:08:00,
2013-01-20 04:13:00,37.4,28.6,30.12,NNW,338,1.1,2.5,70,0.00,,,0.00,WUHU216HW,2013-01-20 10:13:00,
2013-01-20 04:18:00,37.4,28.6,30.12,North,0,1.7,2.5,70,0.00,,,0.00,WUHU216HW,2013-01-20 10:18:00,
2013-01-20 04:23:00,37.1,28.3,30.12,North,0,1.3,1.8,70,0.00,,,0.00,WUHU216HW,2013-01-20 10:23:00,
2013-01-20 04:28:00,37.1,28.3,30.12,North,0,1.6,1.8,70,0.00,,,0.00,WUHU216HW,2013-01-20 10:28:00,
2013-01-20 04:33:00,36.7,28.3,30.12,North,0,2.2,2.2,71,0.00,,,0.00,WUHU216HW,2013-01-20 10:33:00,
2013-01-20 04:38:00,36.7,28.3,30.12,North,0,1.8,2.2,71,0.00,,,0.00,WUHU216HW,2013-01-20 10:38:00,
2013-01-20 04:43:00,36.5,28.1,30.12,NNW,338,1.3,2.2,71,0.00,,,0.00,WUHU216HW,2013-01-20 10:43:00,
2013-01-20 04:48:00,36.2,28.0,30.13,North,0,1.1,1.6,72,0.00,,,0.00,WUHU216HW,2013-01-20 10:48:00,
2013-01-20 04:53:00,36.0,27.8,30.13,NNW,338,0.9,1.8,72,0.00,,,0.00,WUHU216HW,2013-01-20 10:53:00,
2013-01-20 04:58:00,35.8,28.0,30.12,North,0,3.4,3.4,73,0.00,,,0.00,WUHU216HW,2013-01-20 10:58:00,
2013-01-20 05:03:00,36.0,28.2,30.13,North,0,3.1,3.4,73,0.00,,,0.00,WUHU216HW,2013-01-20 11:03:00,
2013-01-20 05:08:00,36.0,28.2,30.13,North,0,2.6,4.9,73,0.00,,,0.00,WUHU216HW,2013-01-20 11:08:00,
2013-01-20 05:13:00,35.6,27.8,30.12,NNE,23,4.5,4.9,73,0.00,,,0.00,WUHU216HW,2013-01-20 11:13:00,
2013-01-20 05:18:00,35.6,27.8,30.13,NNE,23,3.4,4.5,73,0.00,,,0.00,WUHU216HW,2013-01-20 11:18:00,
2013-01-20 05:23:00,35.6,27.8,30.13,North,0,1.8,3.8,73,0.00,,,0.00,WUHU216HW,2013-01-20 11:23:00,
2013-01-20 05:28:00,35.6,28.1,30.13,North,0,3.4,5.1,74,0.00,,,0.00,WUHU216HW,2013-01-20 11:28:00,
2013-01-20 05:33:00,35.6,28.1,30.13,North,0,1.5,5.1,74,0.00,,,0.00,WUHU216HW,2013-01-20 11:33:00,
2013-01-20 05:38:00,35.5,27.9,30.13,NE,45,1.1,2.9,74,0.00,,,0.00,WUHU216HW,2013-01-20 11:38:00,
2013-01-20 05:43:00,35.3,27.7,30.13,North,0,1.5,2.9,74,0.00,,,0.00,WUHU216HW,2013-01-20 11:43:00,
2013-01-20 05:48:00,35.1,27.5,30.12,North,0,0.2,2.0,74,0.00,,,0.00,WUHU216HW,2013-01-20 11:48:00,
2013-01-20 05:53:00,34.7,27.2,30.12,North,0,0.1,0.7,74,0.00,,,0.00,WUHU216HW,2013-01-20 11:53:00,
2013-01-20 05:58:00,34.6,27.0,30.12,North,0,0.6,0.7,74,0.00,,,0.00,WUHU216HW,2013-01-20 11:58:00,
2013-01-20 06:03:00,34.2,26.6,30.13,North,0,0.1,0.7,74,0.00,,,0.00,WUHU216HW,2013-01-20 12:03:00,
2013-01-20 06:08:00,33.8,26.3,30.13,North,0,0.4,0.4,74,0.00,,,0.00,WUHU216HW,2013-01-20 12:08:00,
2013-01-20 06:13:00,33.5,26.3,30.13,North,0,0.7,0.9,75,0.00,,,0.00,WUHU216HW,2013-01-20 12:13:00,
2013-01-20 06:18:00,33.5,26.6,30.13,North,0,0.2,1.1,76,0.00,,,0.00,WUHU216HW,2013-01-20 12:18:00,
2013-01-20 06:23:00,33.3,26.2,30.13,North,0,0.0,1.1,75,0.00,,,0.00,WUHU216HW,2013-01-20 12:23:00,
2013-01-20 06:28:00,32.9,25.8,30.14,North,0,0.0,0.0,75,0.00,,,0.00,WUHU216HW,2013-01-20 12:28:00,
2013-01-20 06:33:00,32.8,26.0,30.14,North,0,0.2,0.2,76,0.00,,,0.00,WUHU216HW,2013-01-20 12:33:00,
2013-01-20 06:38:00,32.4,25.7,30.14,North,0,0.4,0.4,76,0.00,,,0.00,WUHU216HW,2013-01-20 12:38:00,
2013-01-20 06:43:00,32.2,25.5,30.14,North,0,0.4,1.1,76,0.00,,,0.00,WUHU216HW,2013-01-20 12:43:00,
2013-01-20 06:48:00,32.2,25.8,30.14,North,0,0.2,1.1,77,0.00,,,0.00,WUHU216HW,2013-01-20 12:48:00,
2013-01-20 06:53:00,32.0,25.7,30.14,North,0,0.0,0.4,77,0.00,,,0.00,WUHU216HW,2013-01-20 12:53:00,
2013-01-20 06:58:00,32.0,25.4,30.14,North,0,0.0,0.2,76,0.00,,,0.00,WUHU216HW,2013-01-20 12:58:00,
2013-01-20 07:03:00,31.7,25.0,30.14,North,0,0.0,0.0,76,0.00,,,0.00,WUHU216HW,2013-01-20 13:03:00,
2013-01-20 07:08:00,31.3,24.7,30.15,North,0,0.0,0.0,76,0.00,,,0.00,WUHU216HW,2013-01-20 13:08:00,
2013-01-20 07:13:00,31.0,24.3,30.15,North,0,0.0,0.0,76,0.00,,,0.00,WUHU216HW,2013-01-20 13:13:00,
2013-01-20 07:18:00,30.6,24.6,30.15,North,0,0.0,0.0,78,0.00,,,0.00,WUHU216HW,2013-01-20 13:18:00,
2013-01-20 07:23:00,30.4,24.4,30.16,North,0,0.0,0.0,78,0.00,,,0.00,WUHU216HW,2013-01-20 13:23:00,
2013-01-20 07:28:00,30.2,24.2,30.16,NNE,23,0.0,0.0,78,0.00,,,0.00,WUHU216HW,2013-01-20 13:28:00,
2013-01-20 07:33:00,30.1,24.0,30.16,NNE,23,0.0,0.0,78,0.00,,,0.00,WUHU216HW,2013-01-20 13:33:00,
2013-01-20 07:38:00,29.9,23.9,30.16,NNE,23,0.0,0.0,78,0.00,,,0.00,WUHU216HW,2013-01-20 13:38:00,
2013-01-20 07:43:00,29.9,23.9,30.16,NNE,23,0.0,0.0,78,0.00,,,0.00,WUHU216HW,2013-01-20 13:43:00,
2013-01-20 07:48:00,29.9,23.9,30.15,NNE,23,0.0,0.0,78,0.00,,,0.00,WUHU216HW,2013-01-20 13:48:00,
2013-01-20 07:53:00,29.9,24.8,30.15,NNE,23,0.0,0.0,81,0.00,,,0.00,WUHU216HW,2013-01-20 13:53:00,
2013-01-20 07:58:00,30.1,24.3,30.15,NNE,23,0.0,0.0,79,0.00,,,0.00,WUHU216HW,2013-01-20 13:58:00,
2013-01-20 08:03:00,30.4,24.7,30.15,NNE,23,0.0,0.0,79,0.00,,,0.00,WUHU216HW,2013-01-20 14:03:00,
2013-01-20 08:08:00,30.4,24.4,30.15,NNE,23,0.0,0.0,78,0.00,,,0.00,WUHU216HW,2013-01-20 14:08:00,
2013-01-20 08:13:00,30.6,24.6,30.15,NNE,23,0.0,0.0,78,0.00,,,0.00,WUHU216HW,2013-01-20 14:13:00,
2013-01-20 08:18:00,31.0,24.9,30.15,NNE,23,0.0,0.0,78,0.00,,,0.00,WUHU216HW,2013-01-20 14:18:00,
2013-01-20 08:23:00,31.3,25.3,30.15,NNE,23,0.0,0.0,78,0.00,,,0.00,WUHU216HW,2013-01-20 14:23:00,
2013-01-20 08:28:00,32.0,26.6,30.14,ESE,113,0.4,0.4,80,0.00,,,0.00,WUHU216HW,2013-01-20 14:28:00,
2013-01-20 08:33:00,33.5,27.9,30.14,ESE,113,0.3,1.1,80,0.00,,,0.00,WUHU216HW,2013-01-20 14:33:00,
2013-01-20 08:38:00,35.3,28.5,30.15,SE,135,0.1,1.1,76,0.00,,,0.00,WUHU216HW,2013-01-20 14:38:00,
2013-01-20 08:43:00,36.0,28.4,30.14,ESE,113,0.6,1.1,74,0.00,,,0.00,WUHU216HW,2013-01-20 14:43:00,
2013-01-20 08:48:00,36.5,28.7,30.14,SE,127,1.0,1.3,73,0.00,,,0.00,WUHU216HW,2013-01-20 14:48:00,
2013-01-20 08:53:00,37.1,28.9,30.14,East,90,1.6,1.6,72,0.00,,,0.00,WUHU216HW,2013-01-20 14:53:00,
2013-01-20 08:58:00,38.2,29.3,30.14,East,90,3.4,3.4,70,0.00,,,0.00,WUHU216HW,2013-01-20 14:58:00,
2013-01-20 09:03:00,38.7,28.6,30.14,ESE,113,2.5,3.4,67,0.00,,,0.00,WUHU216HW,2013-01-20 15:03:00,
2013-01-20 09:08:00,38.9,28.5,30.14,SE,135,0.4,2.7,66,0.00,,,0.00,WUHU216HW,2013-01-20 15:08:00,
2013-01-20 09:13:00,39.4,28.5,30.14,ESE,111,1.2,2.7,65,0.00,,,0.00,WUHU216HW,2013-01-20 15:13:00,
2013-01-20 09:18:00,39.2,26.8,30.15,ESE,121,0.6,1.3,61,0.00,,,0.00,WUHU216HW,2013-01-20 15:18:00,
2013-01-20 09:23:00,39.4,25.7,30.15,East,90,0.7,1.1,58,0.00,,,0.00,WUHU216HW,2013-01-20 15:23:00,
2013-01-20 09:28:00,39.2,24.3,30.15,SE,135,1.6,1.6,55,0.00,,,0.00,WUHU216HW,2013-01-20 15:28:00,
2013-01-20 09:33:00,39.4,24.0,30.15,ENE,70,2.0,3.6,54,0.00,,,0.00,WUHU216HW,2013-01-20 15:33:00,
2013-01-20 09:38:00,40.5,23.8,30.15,SE,135,1.3,3.6,51,0.00,,,0.00,WUHU216HW,2013-01-20 15:38:00,
2013-01-20 09:43:00,41.2,23.4,30.15,ESE,110,0.8,2.5,49,0.00,,,0.00,WUHU216HW,2013-01-20 15:43:00,
2013-01-20 09:48:00,42.1,22.1,30.14,ESE,113,1.3,2.5,45,0.00,,,0.00,WUHU216HW,2013-01-20 15:48:00,
2013-01-20 09:53:00,43.2,26.3,30.15,ESE,113,1.3,1.3,51,0.00,,,0.00,WUHU216HW,2013-01-20 15:53:00,
2013-01-20 09:58:00,45.0,24.9,30.15,SSE,158,0.7,1.3,45,0.00,,,0.00,WUHU216HW,2013-01-20 15:58:00,
2013-01-20 10:03:00,45.0,21.4,30.16,ESE,113,3.8,3.8,39,0.00,,,0.00,WUHU216HW,2013-01-20 16:03:00,
2013-01-20 10:08:00,45.0,22.2,30.16,SE,135,2.5,3.8,40,0.00,,,0.00,WUHU216HW,2013-01-20 16:08:00,
2013-01-20 10:13:00,44.8,20.6,30.16,ESE,114,1.2,3.4,38,0.00,,,0.00,WUHU216HW,2013-01-20 16:13:00,
2013-01-20 10:18:00,44.8,22.0,30.16,SSE,153,1.0,3.4,40,0.00,,,0.00,WUHU216HW,2013-01-20 16:18:00,
2013-01-20 10:23:00,44.8,21.2,30.16,SSW,194,0.4,2.9,39,0.00,,,0.00,WUHU216HW,2013-01-20 16:23:00,
2013-01-20 10:28:00,44.8,22.5,30.16,ESE,120,0.3,2.9,41,0.00,,,0.00,WUHU216HW,2013-01-20 16:28:00,
2013-01-20 10:33:00,44.5,21.0,30.16,ESE,113,1.1,2.0,39,0.00,,,0.00,WUHU216HW,2013-01-20 16:33:00,
2013-01-20 10:38:00,44.3,21.4,30.16,SSE,158,2.5,2.7,40,0.00,,,0.00,WUHU216HW,2013-01-20 16:38:00,
2013-01-20 10:43:00,44.8,22.5,30.16,SSE,158,1.8,2.7,41,0.00,,,0.00,WUHU216HW,2013-01-20 16:43:00,
2013-01-20 10:48:00,45.7,24.4,30.16,East,90,0.4,2.7,43,0.00,,,0.00,WUHU216HW,2013-01-20 16:48:00,
2013-01-20 10:53:00,46.1,19.1,30.16,SE,135,2.9,2.9,34,0.00,,,0.00,WUHU216HW,2013-01-20 16:53:00,
2013-01-20 10:58:00,45.7,21.4,30.15,NNE,23,0.4,2.9,38,0.00,,,0.00,WUHU216HW,2013-01-20 16:58:00,
2013-01-20 11:03:00,46.1,19.7,30.15,SE,135,1.5,2.5,35,0.00,,,0.00,WUHU216HW,2013-01-20 17:03:00,
2013-01-20 11:08:00,46.4,20.7,30.15,ESE,103,1.2,2.0,36,0.00,,,0.00,WUHU216HW,2013-01-20 17:08:00,
2013-01-20 11:13:00,47.5,20.3,30.15,SSE,158,0.9,2.0,34,0.00,,,0.00,WUHU216HW,2013-01-20 17:13:00,
2013-01-20 11:18:00,48.6,21.3,30.14,SE,135,1.3,1.6,34,0.00,,,0.00,WUHU216HW,2013-01-20 17:18:00,
2013-01-20 11:23:00,49.1,21.1,30.14,East,90,0.7,1.6,33,0.00,,,0.00,WUHU216HW,2013-01-20 17:23:00,
2013-01-20 11:28:00,48.6,19.4,30.14,SE,135,1.8,4.3,31,0.00,,,0.00,WUHU216HW,2013-01-20 17:28:00,
2013-01-20 11:33:00,48.6,19.4,30.13,SE,145,0.8,4.3,31,0.00,,,0.00,WUHU216HW,2013-01-20 17:33:00,
2013-01-20 11:38:00,49.0,20.3,30.13,ESE,113,0.9,2.0,32,0.00,,,0.00,WUHU216HW,2013-01-20 17:38:00,
2013-01-20 11:43:00,48.6,18.6,30.13,SSW,203,0.4,2.0,30,0.00,,,0.00,WUHU216HW,2013-01-20 17:43:00,
2013-01-20 11:48:00,48.2,19.7,30.12,West,270,1.3,3.1,32,0.00,,,0.00,WUHU216HW,2013-01-20 17:48:00,
2013-01-20 11:53:00,48.6,21.3,30.12,SE,131,1.1,3.1,34,0.00,,,0.00,WUHU216HW,2013-01-20 17:53:00,
2013-01-20 11:58:00,49.1,19.7,30.11,ESE,113,0.9,2.5,31,0.00,,,0.00,WUHU216HW,2013-01-20 17:58:00,
2013-01-20 12:03:00,49.0,21.0,30.11,SW,225,1.8,2.5,33,0.00,,,0.00,WUHU216HW,2013-01-20 18:03:00,
2013-01-20 12:08:00,49.0,21.6,30.11,SSW,192,0.8,2.5,34,0.00,,,0.00,WUHU216HW,2013-01-20 18:08:00,
2013-01-20 12:13:00,49.3,22.0,30.10,SSE,158,0.6,1.6,34,0.00,,,0.00,WUHU216HW,2013-01-20 18:13:00,
2013-01-20 12:18:00,50.0,21.9,30.10,West,270,1.3,1.8,33,0.00,,,0.00,WUHU216HW,2013-01-20 18:18:00,
2013-01-20 12:23:00,50.4,20.2,30.10,SE,135,2.0,2.0,30,0.00,,,0.00,WUHU216HW,2013-01-20 18:23:00,
2013-01-20 12:28:00,50.8,22.5,30.09,SE,135,2.2,2.2,33,0.00,,,0.00,WUHU216HW,2013-01-20 18:28:00,
2013-01-20 12:33:00,50.9,21.3,30.09,SSE,158,1.8,2.2,31,0.00,,,0.00,WUHU216HW,2013-01-20 18:33:00,
2013-01-20 12:38:00,51.1,21.4,30.09,SSW,203,1.1,2.2,31,0.00,,,0.00,WUHU216HW,2013-01-20 18:38:00,
2013-01-20 12:43:00,51.1,20.8,30.08,ESE,102,1.5,2.2,30,0.00,,,0.00,WUHU216HW,2013-01-20 18:43:00,
2013-01-20 12:48:00,51.1,19.8,30.08,South,180,2.5,2.5,29,0.00,,,0.00,WUHU216HW,2013-01-20 18:48:00,
2013-01-20 12:53:00,51.3,21.0,30.08,SE,135,1.1,3.4,30,0.00,,,0.00,WUHU216HW,2013-01-20 18:53:00,
2013-01-20 12:58:00,51.5,21.1,30.08,ESE,113,1.6,3.4,30,0.00,,,0.00,WUHU216HW,2013-01-20 18:58:00,
2013-01-20 13:03:00,51.7,22.0,30.08,ENE,59,0.8,1.8,31,0.00,,,0.00,WUHU216HW,2013-01-20 19:03:00,
2013-01-20 13:08:00,51.7,22.6,30.08,North,0,0.4,1.8,32,0.00,,,0.00,WUHU216HW,2013-01-20 19:08:00,
2013-01-20 13:13:00,51.3,21.0,30.07,NNE,23,0.4,1.6,30,0.00,,,0.00,WUHU216HW,2013-01-20 19:13:00,
2013-01-20 13:18:00,50.8,21.2,30.07,South,180,2.2,2.2,31,0.00,,,0.00,WUHU216HW,2013-01-20 19:18:00,
2013-01-20 13:23:00,51.1,22.1,30.07,SE,142,1.1,2.7,32,0.00,,,0.00,WUHU216HW,2013-01-20 19:23:00,
2013-01-20 13:28:00,51.5,22.5,30.07,SE,127,1.9,2.7,32,0.00,,,0.00,WUHU216HW,2013-01-20 19:28:00,
2013-01-20 13:33:00,51.5,22.5,30.06,North,0,0.1,2.5,32,0.00,,,0.00,WUHU216HW,2013-01-20 19:33:00,
2013-01-20 13:38:00,51.3,21.6,30.06,SE,125,1.3,1.8,31,0.00,,,0.00,WUHU216HW,2013-01-20 19:38:00,
2013-01-20 13:43:00,51.7,23.3,30.06,SW,219,0.8,1.8,33,0.00,,,0.00,WUHU216HW,2013-01-20 19:43:00,
2013-01-20 13:48:00,52.0,23.0,30.06,SSE,161,0.7,1.6,32,0.00,,,0.00,WUHU216HW,2013-01-20 19:48:00,
2013-01-20 13:53:00,52.2,23.1,30.06,ESE,113,0.7,1.3,32,0.00,,,0.00,WUHU216HW,2013-01-20 19:53:00,
2013-01-20 13:58:00,51.8,22.2,30.06,ESE,113,1.6,2.2,31,0.00,,,0.00,WUHU216HW,2013-01-20 19:58:00,
2013-01-20 14:03:00,51.8,22.8,30.06,NE,45,0.7,2.2,32,0.00,,,0.00,WUHU216HW,2013-01-20 20:03:00,
2013-01-20 14:08:00,52.2,23.8,30.06,North,0,0.4,2.2,33,0.00,,,0.00,WUHU216HW,2013-01-20 20:08:00,
2013-01-20 14:13:00,52.6,23.4,30.06,SSE,158,1.8,2.5,32,0.00,,,0.00,WUHU216HW,2013-01-20 20:13:00,
2013-01-20 14:18:00,52.9,23.8,30.06,South,186,0.6,2.5,32,0.00,,,0.00,WUHU216HW,2013-01-20 20:18:00,
2013-01-20 14:23:00,53.3,23.4,30.06,SW,225,2.5,2.5,31,0.00,,,0.00,WUHU216HW,2013-01-20 20:23:00,
2013-01-20 14:28:00,52.9,21.4,30.06,SE,135,0.8,2.5,29,0.00,,,0.00,WUHU216HW,2013-01-20 20:28:00,
2013-01-20 14:33:00,52.7,22.2,30.06,ESE,113,0.9,1.3,30,0.00,,,0.00,WUHU216HW,2013-01-20 20:33:00,
2013-01-20 14:38:00,52.9,23.0,30.06,WSW,248,0.9,1.6,31,0.00,,,0.00,WUHU216HW,2013-01-20 20:38:00,
2013-01-20 14:43:00,52.9,23.8,30.06,North,0,2.0,2.0,32,0.00,,,0.00,WUHU216HW,2013-01-20 20:43:00,
2013-01-20 14:48:00,52.7,23.6,30.06,NNW,338,0.3,2.0,32,0.00,,,0.00,WUHU216HW,2013-01-20 20:48:00,
2013-01-20 14:53:00,52.4,21.9,30.06,SE,135,1.8,2.2,30,0.00,,,0.00,WUHU216HW,2013-01-20 20:53:00,
2013-01-20 14:58:00,52.2,22.4,30.05,SSE,158,0.7,2.9,31,0.00,,,0.00,WUHU216HW,2013-01-20 20:58:00,
2013-01-20 15:03:00,52.6,22.8,30.06,SSE,158,0.4,2.9,31,0.00,,,0.00,WUHU216HW,2013-01-20 21:03:00,
2013-01-20 15:08:00,52.6,21.2,30.06,ESE,113,1.8,1.8,29,0.00,,,0.00,WUHU216HW,2013-01-20 21:08:00,
2013-01-20 15:13:00,52.2,21.8,30.05,SE,135,1.2,1.8,30,0.00,,,0.00,WUHU216HW,2013-01-20 21:13:00,
2013-01-20 15:18:00,52.4,23.3,30.05,NE,45,1.6,1.6,32,0.00,,,0.00,WUHU216HW,2013-01-20 21:18:00,
2013-01-20 15:23:00,52.7,23.0,30.05,North,349,3.0,3.1,31,0.00,,,0.00,WUHU216HW,2013-01-20 21:23:00,
2013-01-20 15:28:00,52.9,23.0,30.05,NNE,23,1.1,3.1,31,0.00,,,0.00,WUHU216HW,2013-01-20 21:28:00,
2013-01-20 15:33:00,52.7,23.0,30.06,NNE,15,2.6,5.1,31,0.00,,,0.00,WUHU216HW,2013-01-20 21:33:00,
2013-01-20 15:38:00,52.7,23.0,30.06,North,356,1.9,5.1,31,0.00,,,0.00,WUHU216HW,2013-01-20 21:38:00,
2013-01-20 15:43:00,52.7,22.2,30.05,WNW,297,1.1,2.9,30,0.00,,,0.00,WUHU216HW,2013-01-20 21:43:00,
2013-01-20 15:48:00,52.6,22.1,30.06,NNE,23,2.2,2.9,30,0.00,,,0.00,WUHU216HW,2013-01-20 21:48:00,
2013-01-20 15:53:00,52.4,22.6,30.05,North,0,4.0,4.0,31,0.00,,,0.00,WUHU216HW,2013-01-20 21:53:00,
2013-01-20 15:58:00,52.2,21.8,30.05,North,0,1.3,4.0,30,0.00,,,0.00,WUHU216HW,2013-01-20 21:58:00,
2013-01-20 16:03:00,52.2,21.8,30.06,NNW,338,2.5,2.7,30,0.00,,,0.00,WUHU216HW,2013-01-20 22:03:00,
2013-01-20 16:08:00,52.0,21.6,30.06,North,0,2.3,3.4,30,0.00,,,0.00,WUHU216HW,2013-01-20 22:08:00,
2013-01-20 16:13:00,52.0,22.2,30.06,North,0,3.4,3.4,31,0.00,,,0.00,WUHU216HW,2013-01-20 22:13:00,
2013-01-20 16:18:00,51.7,21.2,30.06,NNW,338,2.5,5.1,30,0.00,,,0.00,WUHU216HW,2013-01-20 22:18:00,
2013-01-20 16:23:00,51.5,21.1,30.05,North,0,3.8,5.1,30,0.00,,,0.00,WUHU216HW,2013-01-20 22:23:00,
2013-01-20 16:28:00,51.1,21.4,30.06,NNE,12,2.8,4.0,31,0.00,,,0.00,WUHU216HW,2013-01-20 22:28:00,
2013-01-20 16:33:00,50.8,21.2,30.06,NE,55,3.3,5.1,31,0.00,,,0.00,WUHU216HW,2013-01-20 22:33:00,
2013-01-20 16:38:00,50.4,21.5,30.06,North,0,4.0,5.1,32,0.00,,,0.00,WUHU216HW,2013-01-20 22:38:00,
2013-01-20 16:43:00,50.0,21.2,30.06,North,0,4.3,5.4,32,0.00,,,0.00,WUHU216HW,2013-01-20 22:43:00,
2013-01-20 16:48:00,49.9,21.1,30.06,North,0,6.3,6.3,32,0.00,,,0.00,WUHU216HW,2013-01-20 22:48:00,
2013-01-20 16:53:00,49.5,20.7,30.06,North,0,4.9,6.3,32,0.00,,,0.00,WUHU216HW,2013-01-20 22:53:00,
2013-01-20 16:58:00,49.0,21.0,30.06,North,0,2.5,4.9,33,0.00,,,0.00,WUHU216HW,2013-01-20 22:58:00,
2013-01-20 17:03:00,48.4,20.5,30.06,North,0,1.8,4.7,33,0.00,,,0.00,WUHU216HW,2013-01-20 23:03:00,
2013-01-20 17:08:00,47.9,20.7,30.06,North,0,2.5,4.7,34,0.00,,,0.00,WUHU216HW,2013-01-20 23:08:00,
2013-01-20 17:13:00,47.2,20.1,30.06,NNE,23,1.1,4.0,34,0.00,,,0.00,WUHU216HW,2013-01-20 23:13:00,
2013-01-20 17:18:00,46.8,19.7,30.06,NNW,338,2.5,3.4,34,0.00,,,0.00,WUHU216HW,2013-01-20 23:18:00,
2013-01-20 17:23:00,46.4,20.1,30.06,North,0,2.3,2.9,35,0.00,,,0.00,WUHU216HW,2013-01-20 23:23:00,
2013-01-20 17:28:00,45.9,19.6,30.06,NNE,23,4.7,5.4,35,0.00,,,0.00,WUHU216HW,2013-01-20 23:28:00,
2013-01-20 17:33:00,45.4,19.1,30.06,North,0,3.4,5.4,35,0.00,,,0.00,WUHU216HW,2013-01-20 23:33:00,
2013-01-20 17:38:00,45.0,19.4,30.06,North,0,2.4,4.0,36,0.00,,,0.00,WUHU216HW,2013-01-20 23:38:00,
2013-01-20 17:43:00,44.6,19.1,30.06,North,0,4.0,5.4,36,0.00,,,0.00,WUHU216HW,2013-01-20 23:43:00,
2013-01-20 17:48:00,44.3,18.8,30.07,North,0,2.0,5.4,36,0.00,,,0.00,WUHU216HW,2013-01-20 23:48:00,
2013-01-20 17:53:00,43.7,18.3,30.07,North,0,1.8,3.4,36,0.00,,,0.00,WUHU216HW,2013-01-20 23:53:00,
2013-01-20 17:58:00,43.4,18.6,30.07,North,0,1.5,2.5,37,0.00,,,0.00,WUHU216HW,2013-01-20 23:58:00,
2013-01-20 18:03:00,43.0,18.4,30.07,North,350,1.8,2.5,37,0.00,,,0.00,WUHU216HW,2013-01-21 00:03:00,
2013-01-20 18:08:00,42.7,18.6,30.07,North,0,1.8,2.9,38,0.00,,,0.00,WUHU216HW,2013-01-21 00:08:00,
2013-01-20 18:13:00,42.3,18.4,30.07,North,0,2.5,2.9,38,0.00,,,0.00,WUHU216HW,2013-01-21 00:13:00,
2013-01-20 18:18:00,42.1,18.2,30.07,NE,45,4.7,4.7,38,0.00,,,0.00,WUHU216HW,2013-01-21 00:18:00,
2013-01-20 18:23:00,41.9,18.0,30.07,North,0,2.6,4.7,38,0.00,,,0.00,WUHU216HW,2013-01-21 00:23:00,
2013-01-20 18:28:00,41.6,17.7,30.07,NNE,15,2.8,3.6,38,0.00,,,0.00,WUHU216HW,2013-01-21 00:28:00,
2013-01-20 18:33:00,41.4,18.2,30.07,North,0,2.0,3.6,39,0.00,,,0.00,WUHU216HW,2013-01-21 00:33:00,
2013-01-20 18:38:00,41.0,17.9,30.07,North,0,2.7,4.0,39,0.00,,,0.00,WUHU216HW,2013-01-21 00:38:00,
2013-01-20 18:43:00,40.9,17.7,30.07,North,351,1.4,4.5,39,0.00,,,0.00,WUHU216HW,2013-01-21 00:43:00,
2013-01-20 18:48:00,40.7,17.6,30.07,NNE,23,6.3,6.3,39,0.00,,,0.00,WUHU216HW,2013-01-21 00:48:00,
2013-01-20 18:53:00,40.5,17.4,30.07,North,359,2.1,6.3,39,0.00,,,0.00,WUHU216HW,2013-01-21 00:53:00,
2013-01-20 18:58:00,40.3,17.3,30.07,North,0,2.2,4.0,39,0.00,,,0.00,WUHU216HW,2013-01-21 00:58:00,
2013-01-20 19:03:00,40.0,16.9,30.08,NNE,23,1.8,3.4,39,0.00,,,0.00,WUHU216HW,2013-01-21 01:03:00,
2013-01-20 19:08:00,39.8,17.4,30.08,North,0,1.6,3.8,40,0.00,,,0.00,WUHU216HW,2013-01-21 01:08:00,
2013-01-20 19:13:00,39.6,17.3,30.08,North,0,2.5,3.8,40,0.00,,,0.00,WUHU216HW,2013-01-21 01:13:00,
2013-01-20 19:18:00,39.2,16.9,30.08,North,0,1.5,4.3,40,0.00,,,0.00,WUHU216HW,2013-01-21 01:18:00,
2013-01-20 19:23:00,39.1,17.3,30.08,North,0,4.3,4.3,41,0.00,,,0.00,WUHU216HW,2013-01-21 01:23:00,
2013-01-20 19:28:00,38.9,17.1,30.08,North,0,2.2,4.3,41,0.00,,,0.00,WUHU216HW,2013-01-21 01:28:00,
2013-01-20 19:33:00,38.5,17.3,30.09,NNW,338,1.6,4.3,42,0.00,,,0.00,WUHU216HW,2013-01-21 01:33:00,
2013-01-20 19:38:00,38.2,17.0,30.09,NNE,17,0.8,3.6,42,0.00,,,0.00,WUHU216HW,2013-01-21 01:38:00,
2013-01-20 19:43:00,38.0,17.4,30.09,North,7,1.3,2.7,43,0.00,,,0.00,WUHU216HW,2013-01-21 01:43:00,
2013-01-20 19:48:00,37.6,17.0,30.09,NNW,345,1.3,2.7,43,0.00,,,0.00,WUHU216HW,2013-01-21 01:48:00,
2013-01-20 19:53:00,37.4,17.4,30.09,North,0,3.3,3.6,44,0.00,,,0.00,WUHU216HW,2013-01-21 01:53:00,
2013-01-20 19:58:00,37.1,17.6,30.10,NNE,23,4.7,4.7,45,0.00,,,0.00,WUHU216HW,2013-01-21 01:58:00,
2013-01-20 20:03:00,36.9,17.5,30.10,North,0,2.0,4.7,45,0.00,,,0.00,WUHU216HW,2013-01-21 02:03:00,
2013-01-20 20:08:00,36.7,17.3,30.10,North,0,1.8,2.2,45,0.00,,,0.00,WUHU216HW,2013-01-21 02:08:00,
2013-01-20 20:13:00,36.4,16.9,30.10,NNE,12,3.0,4.5,45,0.00,,,0.00,WUHU216HW,2013-01-21 02:13:00,
2013-01-20 20:18:00,36.4,17.5,30.10,North,0,3.1,4.5,46,0.00,,,0.00,WUHU216HW,2013-01-21 02:18:00,
2013-01-20 20:23:00,36.0,17.1,30.10,North,0,2.5,3.4,46,0.00,,,0.00,WUHU216HW,2013-01-21 02:23:00,
2013-01-20 20:28:00,35.6,17.8,30.10,North,353,3.8,5.1,48,0.00,,,0.00,WUHU216HW,2013-01-21 02:28:00,
2013-01-20 20:33:00,35.5,17.6,30.11,NNW,338,3.4,5.1,48,0.00,,,0.00,WUHU216HW,2013-01-21 02:33:00,
2013-01-20 20:38:00,35.5,18.2,30.11,North,0,2.5,5.4,49,0.00,,,0.00,WUHU216HW,2013-01-21 02:38:00,
2013-01-20 20:43:00,35.1,17.8,30.11,NNW,344,1.4,5.4,49,0.00,,,0.00,WUHU216HW,2013-01-21 02:43:00,
2013-01-20 20:48:00,34.9,17.6,30.11,North,0,3.6,4.7,49,0.00,,,0.00,WUHU216HW,2013-01-21 02:48:00,
2013-01-20 20:53:00,34.6,18.3,30.11,NNE,23,3.8,4.7,51,0.00,,,0.00,WUHU216HW,2013-01-21 02:53:00,
2013-01-20 20:58:00,34.2,17.9,30.11,NNE,12,3.3,4.0,51,0.00,,,0.00,WUHU216HW,2013-01-21 02:58:00,
2013-01-20 21:03:00,34.0,18.2,30.11,North,0,2.7,4.0,52,0.00,,,0.00,WUHU216HW,2013-01-21 03:03:00,
2013-01-20 21:08:00,33.8,18.0,30.11,North,0,5.4,5.4,52,0.00,,,0.00,WUHU216HW,2013-01-21 03:08:00,
2013-01-20 21:14:00,33.5,18.1,30.12,North,0,2.5,5.4,53,0.00,,,0.00,WUHU216HW,2013-01-21 03:14:00,
2013-01-20 21:19:00,33.5,18.6,30.12,North,0,2.5,3.4,54,0.00,,,0.00,WUHU216HW,2013-01-21 03:19:00,
2013-01-20 21:23:00,33.1,18.2,30.13,North,0,3.4,3.8,54,0.00,,,0.00,WUHU216HW,2013-01-21 03:23:00,
2013-01-20 21:28:00,32.9,18.5,30.13,North,0,2.9,3.8,55,0.00,,,0.00,WUHU216HW,2013-01-21 03:28:00,
2013-01-20 21:33:00,32.8,18.7,30.13,North,0,2.7,4.7,56,0.00,,,0.00,WUHU216HW,2013-01-21 03:33:00,
2013-01-20 21:38:00,32.4,18.4,30.13,North,0,2.5,4.7,56,0.00,,,0.00,WUHU216HW,2013-01-21 03:38:00,
2013-01-20 21:43:00,32.2,18.3,30.13,North,0,3.3,4.3,56,0.00,,,0.00,WUHU216HW,2013-01-21 03:43:00,
2013-01-20 21:48:00,32.0,18.1,30.14,North,0,4.0,4.3,56,0.00,,,0.00,WUHU216HW,2013-01-21 03:48:00,
2013-01-20 21:53:00,32.0,18.1,30.14,North,0,3.8,5.8,56,0.00,,,0.00,WUHU216HW,2013-01-21 03:53:00,
2013-01-20 21:58:00,31.7,18.5,30.14,NNW,338,6.3,6.3,58,0.00,,,0.00,WUHU216HW,2013-01-21 03:58:00,
2013-01-20 22:03:00,31.5,18.5,30.14,North,0,4.1,6.3,58,0.00,,,0.00,WUHU216HW,2013-01-21 04:03:00,
2013-01-20 22:08:00,31.3,18.3,30.14,North,1,3.6,5.4,58,0.00,,,0.00,WUHU216HW,2013-01-21 04:08:00,
2013-01-20 22:13:00,31.0,17.9,30.15,North,0,5.6,5.6,58,0.00,,,0.00,WUHU216HW,2013-01-21 04:13:00,
2013-01-20 22:18:00,30.8,17.7,30.15,NE,43,3.3,5.6,58,0.00,,,0.00,WUHU216HW,2013-01-21 04:18:00,
2013-01-20 22:23:00,30.6,17.1,30.15,North,0,4.5,5.4,57,0.00,,,0.00,WUHU216HW,2013-01-21 04:23:00,
2013-01-20 22:28:00,30.4,17.4,30.15,North,359,4.9,8.1,58,0.00,,,0.00,WUHU216HW,2013-01-21 04:28:00,
2013-01-20 22:33:00,30.2,17.2,30.15,North,0,4.0,8.1,58,0.00,,,0.00,WUHU216HW,2013-01-21 04:33:00,
2013-01-20 22:38:00,30.1,17.0,30.15,NNE,12,2.3,7.4,58,0.00,,,0.00,WUHU216HW,2013-01-21 04:38:00,
2013-01-20 22:43:00,29.9,16.8,30.16,North,0,5.1,7.4,58,0.00,,,0.00,WUHU216HW,2013-01-21 04:43:00,
2013-01-20 22:48:00,29.7,16.7,30.17,NNW,338,5.1,6.3,58,0.00,,,0.00,WUHU216HW,2013-01-21 04:48:00,
2013-01-20 22:53:00,29.5,16.6,30.17,NNE,23,2.7,6.3,58,0.00,,,0.00,WUHU216HW,2013-01-21 04:53:00,
2013-01-20 22:58:00,29.2,16.2,30.17,North,0,2.0,6.3,58,0.00,,,0.00,WUHU216HW,2013-01-21 04:58:00,
2013-01-20 23:00:00,29.2,16.2,30.17,NNW,338,4.0,6.3,58,0.00,,,0.00,WUHU216HW,2013-01-21 05:00:00,
2013-01-20 23:01:00,29.2,16.2,30.17,NNW,338,4.0,6.3,58,0.00,,,0.00,WUHU216HW,2013-01-21 05:01:00,
2013-01-20 23:03:00,29.2,16.2,30.17,NNW,338,2.0,4.3,58,0.00,,,0.00,WUHU216HW,2013-01-21 05:03:00,
2013-01-20 23:08:00,28.8,16.3,30.17,NNW,346,1.6,4.0,59,0.00,,,0.00,WUHU216HW,2013-01-21 05:08:00,
2013-01-20 23:13:00,28.6,16.6,30.17,North,352,3.6,4.7,60,0.00,,,0.00,WUHU216HW,2013-01-21 05:13:00,
2013-01-20 23:18:00,28.6,16.1,30.17,North,0,4.0,5.6,59,0.00,,,0.00,WUHU216HW,2013-01-21 05:18:00,
2013-01-20 23:23:00,28.4,16.4,30.17,North,350,1.5,5.6,60,0.00,,,0.00,WUHU216HW,2013-01-21 05:23:00,
2013-01-20 23:28:00,28.3,16.2,30.17,North,350,4.2,4.7,60,0.00,,,0.00,WUHU216HW,2013-01-21 05:28:00,
2013-01-20 23:34:00,28.1,16.4,30.17,NNW,348,1.9,4.7,61,0.00,,,0.00,WUHU216HW,2013-01-21 05:34:00,
2013-01-20 23:39:00,27.9,16.6,30.17,NNW,348,6.2,6.3,62,0.00,,,0.00,WUHU216HW,2013-01-21 05:39:00,
2013-01-20 23:44:00,27.9,16.2,30.17,NNE,16,2.9,6.3,61,0.00,,,0.00,WUHU216HW,2013-01-21 05:44:00,
2013-01-20 23:49:00,27.7,16.0,30.16,North,0,1.6,4.0,61,0.00,,,0.00,WUHU216HW,2013-01-21 05:49:00,
2013-01-20 23:54:00,27.7,16.4,30.16,North,0,0.7,2.0,62,0.00,,,0.00,WUHU216HW,2013-01-21 05:54:00,
2013-01-20 23:59:00,27.5,16.2,30.16,NNE,23,3.4,3.4,62,0.00,,,0.00,WUHU216HW,2013-01-21 05:59:00,